IBE24L LEVX-LEMD

Flight info

Callsign IBE24L
Flight time 0h 54m
Altitude 29000
Route BEDAL DCT GODIV Z406 ZMR
Aircraft A319/M-SDE3FGHIRWY/LB1

Departure

Time 2026-05-08 08:08
Airport Vigo Airport (LEVX)

Arrival

Time 2026-05-08 09:02
Airport Adolfo Suárez Madrid–Barajas Airport (LEMD)
Time Latitude Longitude Altitude Speed Heading
2026-05-08 07:44 42.22465 -8.63205 851 ft 0 kts 281°
2026-05-08 07:58 42.22464 -8.63199 861 ft 2 kts 281°
2026-05-08 07:58 42.22462 -8.63181 853 ft 2 kts 281°
2026-05-08 07:58 42.22459 -8.63163 857 ft 2 kts 281°
2026-05-08 07:58 42.22456 -8.63146 851 ft 2 kts 281°
2026-05-08 07:59 42.22454 -8.63128 847 ft 2 kts 290°
2026-05-08 07:59 42.22448 -8.63112 852 ft 2 kts 322°
2026-05-08 07:59 42.22437 -8.63103 853 ft 2 kts 343°
2026-05-08 07:59 42.22432 -8.63100 856 ft 2 kts
2026-05-08 08:00 42.22442 -8.63098 861 ft 0 kts 11°
2026-05-08 08:03 42.22443 -8.63098 861 ft 1 kts 11°
2026-05-08 08:03 42.22462 -8.63093 861 ft 6 kts 11°
2026-05-08 08:03 42.22521 -8.63077 852 ft 11 kts 11°
2026-05-08 08:03 42.22605 -8.63055 859 ft 13 kts 11°
2026-05-08 08:04 42.22690 -8.62997 853 ft 15 kts 40°
2026-05-08 08:04 42.22771 -8.62904 853 ft 16 kts 40°
2026-05-08 08:04 42.22866 -8.62810 857 ft 17 kts 33°
2026-05-08 08:04 42.22972 -8.62733 855 ft 18 kts 12°
2026-05-08 08:05 42.23102 -8.62704 852 ft 20 kts 11°
2026-05-08 08:05 42.23243 -8.62666 847 ft 21 kts 11°
2026-05-08 08:05 42.23390 -8.62625 848 ft 23 kts 12°
2026-05-08 08:05 42.23556 -8.62578 842 ft 26 kts 12°
2026-05-08 08:06 42.23740 -8.62527 834 ft 28 kts 12°
2026-05-08 08:06 42.23933 -8.62475 837 ft 29 kts 11°
2026-05-08 08:06 42.24098 -8.62432 840 ft 16 kts 11°
2026-05-08 08:06 42.24197 -8.62435 840 ft 11 kts 346°
2026-05-08 08:07 42.24224 -8.62399 838 ft 5 kts 156°
2026-05-08 08:07 42.24189 -8.62407 832 ft 0 kts 193°
2026-05-08 08:07 42.24188 -8.62408 832 ft 0 kts 193°
2026-05-08 08:07 42.24094 -8.62437 835 ft 49 kts 191°
2026-05-08 08:08 42.23483 -8.62600 849 ft 125 kts 191°
2026-05-08 08:08 42.22459 -8.62875 1051 ft 165 kts 191°
2026-05-08 08:08 42.21272 -8.63180 1577 ft 183 kts 192°
2026-05-08 08:08 42.20006 -8.63511 2335 ft 187 kts 191°
2026-05-08 08:09 42.18707 -8.63865 3029 ft 198 kts 191°
2026-05-08 08:09 42.17253 -8.64245 3459 ft 223 kts 190°
2026-05-08 08:09 42.15753 -8.64622 4650 ft 216 kts 190°
2026-05-08 08:09 42.14277 -8.65009 5722 ft 217 kts 192°
2026-05-08 08:10 42.12771 -8.65188 6661 ft 222 kts 169°
2026-05-08 08:10 42.11465 -8.64108 7631 ft 230 kts 131°
2026-05-08 08:10 42.10959 -8.62066 8647 ft 246 kts 95°
2026-05-08 08:10 42.11494 -8.59812 9604 ft 266 kts 62°
2026-05-08 08:11 42.12715 -8.57885 10534 ft 274 kts 48°
2026-05-08 08:11 42.14142 -8.56164 11502 ft 276 kts 45°
2026-05-08 08:11 42.15600 -8.54472 12485 ft 277 kts 46°
2026-05-08 08:11 42.17025 -8.52739 13487 ft 276 kts 48°
2026-05-08 08:12 42.18408 -8.50948 14344 ft 276 kts 51°
2026-05-08 08:12 42.19759 -8.49107 15197 ft 276 kts 52°
2026-05-08 08:12 42.21093 -8.47224 15739 ft 277 kts 53°
2026-05-08 08:12 42.22412 -8.45325 16873 ft 279 kts 54°
2026-05-08 08:13 42.23523 -8.43202 17394 ft 280 kts 76°
2026-05-08 08:13 42.23750 -8.40591 17623 ft 288 kts 104°
2026-05-08 08:13 42.23011 -8.38034 17825 ft 303 kts 122°
2026-05-08 08:13 42.22108 -8.35337 17958 ft 330 kts 110°
2026-05-08 08:14 42.21645 -8.32199 18155 ft 352 kts 102°
2026-05-08 08:14 42.21289 -8.28888 18651 ft 361 kts 101°
2026-05-08 08:14 42.20978 -8.25506 19271 ft 366 kts 100°
2026-05-08 08:14 42.20690 -8.22078 19895 ft 370 kts 100°
2026-05-08 08:15 42.20406 -8.18610 20526 ft 374 kts 99°
2026-05-08 08:15 42.20118 -8.15106 21143 ft 378 kts 100°
2026-05-08 08:15 42.19739 -8.11589 21744 ft 380 kts 107°
2026-05-08 08:15 42.18945 -8.08194 22348 ft 381 kts 112°
2026-05-08 08:16 42.18070 -8.04802 22927 ft 385 kts 112°
2026-05-08 08:16 42.17184 -8.01378 23486 ft 389 kts 112°
2026-05-08 08:16 42.16289 -7.97922 23941 ft 392 kts 112°
2026-05-08 08:16 42.15390 -7.94447 24298 ft 394 kts 112°
2026-05-08 08:17 42.14488 -7.90958 24384 ft 394 kts 112°
2026-05-08 08:17 42.13589 -7.87472 24398 ft 394 kts 112°
2026-05-08 08:17 42.12702 -7.84032 24390 ft 392 kts 112°
2026-05-08 08:17 42.11805 -7.80565 24391 ft 392 kts 112°
2026-05-08 08:18 42.10910 -7.77100 24395 ft 392 kts 112°
2026-05-08 08:18 42.10011 -7.73633 24478 ft 394 kts 112°
2026-05-08 08:18 42.09102 -7.70140 25002 ft 396 kts 112°
2026-05-08 08:18 42.08186 -7.66642 25501 ft 398 kts 112°
2026-05-08 08:19 42.07262 -7.63121 25993 ft 400 kts 112°
2026-05-08 08:19 42.06333 -7.59580 26436 ft 403 kts 113°
2026-05-08 08:19 42.05396 -7.56010 26834 ft 406 kts 113°
2026-05-08 08:19 42.04448 -7.52403 27272 ft 409 kts 113°
2026-05-08 08:20 42.03494 -7.48782 27711 ft 412 kts 113°
2026-05-08 08:20 42.02536 -7.45145 28168 ft 415 kts 113°
2026-05-08 08:20 42.01569 -7.41472 28634 ft 417 kts 113°
2026-05-08 08:20 42.00601 -7.37797 28867 ft 418 kts 113°
2026-05-08 08:21 41.99638 -7.34136 28907 ft 413 kts 113°
2026-05-08 08:21 41.97729 -7.26903 28911 ft 409 kts 114°
2026-05-08 08:22 41.95814 -7.19718 28900 ft 406 kts 114°
2026-05-08 08:22 41.93913 -7.12585 28909 ft 406 kts 114°
2026-05-08 08:23 41.92005 -7.05453 28911 ft 406 kts 114°
2026-05-08 08:23 41.90094 -6.98322 28920 ft 406 kts 114°
2026-05-08 08:24 41.88182 -6.91200 28914 ft 405 kts 114°
2026-05-08 08:24 41.86262 -6.84090 28893 ft 406 kts 114°
2026-05-08 08:25 41.84333 -6.76975 28899 ft 406 kts 114°
2026-05-08 08:25 41.82396 -6.69861 28901 ft 406 kts 114°
2026-05-08 08:26 41.80464 -6.62747 28902 ft 406 kts 114°
2026-05-08 08:26 41.78532 -6.55653 28918 ft 405 kts 114°
2026-05-08 08:27 41.76595 -6.48579 28923 ft 404 kts 114°
2026-05-08 08:27 41.74659 -6.41515 28899 ft 404 kts 114°
2026-05-08 08:28 41.72715 -6.34444 28900 ft 405 kts 114°
2026-05-08 08:28 41.70761 -6.27377 28901 ft 405 kts 114°
2026-05-08 08:29 41.68801 -6.20288 28907 ft 406 kts 114°
2026-05-08 08:29 41.66842 -6.13228 28906 ft 405 kts 114°
2026-05-08 08:30 41.64880 -6.06165 28882 ft 405 kts 114°
2026-05-08 08:30 41.61914 -5.95551 28901 ft 407 kts 114°
2026-05-08 08:31 41.59946 -5.88525 28923 ft 406 kts 114°
2026-05-08 08:31 41.57967 -5.81482 28934 ft 405 kts 114°
2026-05-08 08:32 41.55979 -5.74451 28919 ft 404 kts 114°
2026-05-08 08:32 41.53961 -5.67455 28886 ft 402 kts 118°
2026-05-08 08:33 41.50853 -5.61364 28901 ft 396 kts 136°
2026-05-08 08:33 41.46812 -5.56386 28904 ft 396 kts 139°
2026-05-08 08:34 41.42749 -5.51411 28903 ft 397 kts 138°
2026-05-08 08:34 41.38684 -5.46440 28904 ft 397 kts 138°
2026-05-08 08:35 41.34615 -5.41482 28903 ft 396 kts 138°
2026-05-08 08:35 41.30549 -5.36529 28905 ft 396 kts 138°
2026-05-08 08:36 41.26483 -5.31582 28870 ft 396 kts 139°
2026-05-08 08:36 41.22403 -5.26647 28894 ft 397 kts 138°
2026-05-08 08:37 41.18316 -5.21710 28896 ft 397 kts 139°
2026-05-08 08:37 41.14894 -5.17577 28896 ft 397 kts 139°
2026-05-08 08:38 41.10806 -5.12639 28897 ft 397 kts 139°
2026-05-08 08:38 41.06735 -5.07746 28899 ft 398 kts 139°
2026-05-08 08:39 41.02640 -5.02816 28900 ft 398 kts 139°
2026-05-08 08:39 40.98539 -4.97899 28913 ft 398 kts 139°
2026-05-08 08:40 40.94436 -4.92994 28882 ft 397 kts 139°
2026-05-08 08:40 40.90326 -4.88085 28645 ft 399 kts 139°
2026-05-08 08:41 40.88263 -4.85622 28384 ft 400 kts 139°
2026-05-08 08:41 40.86200 -4.83159 27962 ft 397 kts 139°
2026-05-08 08:41 40.84161 -4.80724 27303 ft 393 kts 140°
2026-05-08 08:41 40.82143 -4.78318 26671 ft 389 kts 140°
2026-05-08 08:42 40.80148 -4.75939 26069 ft 384 kts 140°
2026-05-08 08:42 40.78172 -4.73587 25463 ft 381 kts 140°
2026-05-08 08:42 40.76209 -4.71255 24872 ft 379 kts 140°
2026-05-08 08:42 40.74253 -4.68935 24276 ft 378 kts 141°
2026-05-08 08:43 40.72303 -4.66624 23689 ft 377 kts 141°
2026-05-08 08:43 40.70352 -4.64312 23046 ft 377 kts 141°
2026-05-08 08:43 40.68408 -4.62012 22488 ft 374 kts 141°
2026-05-08 08:43 40.66481 -4.59734 21971 ft 371 kts 141°
2026-05-08 08:44 40.64568 -4.57472 21475 ft 368 kts 141°
2026-05-08 08:44 40.62678 -4.55226 20989 ft 364 kts 139°
2026-05-08 08:44 40.60933 -4.52778 20555 ft 372 kts 135°
2026-05-08 08:44 40.59178 -4.50249 20129 ft 375 kts 135°
2026-05-08 08:45 40.57416 -4.47718 19699 ft 375 kts 135°
2026-05-08 08:45 40.55657 -4.45194 19267 ft 373 kts 135°
2026-05-08 08:45 40.53905 -4.42682 18836 ft 372 kts 135°
2026-05-08 08:45 40.52164 -4.40179 18414 ft 370 kts 135°
2026-05-08 08:46 40.50430 -4.37687 17941 ft 368 kts 135°
2026-05-08 08:46 40.48707 -4.35213 17511 ft 366 kts 135°
2026-05-08 08:46 40.46992 -4.32757 17096 ft 364 kts 135°
2026-05-08 08:46 40.45287 -4.30317 16674 ft 361 kts 135°
2026-05-08 08:47 40.43592 -4.27898 16253 ft 359 kts 135°
2026-05-08 08:47 40.41908 -4.25497 15846 ft 356 kts 135°
2026-05-08 08:47 40.40234 -4.23112 15431 ft 354 kts 135°
2026-05-08 08:47 40.38569 -4.20741 15015 ft 352 kts 136°
2026-05-08 08:48 40.36914 -4.18386 14613 ft 350 kts 136°
2026-05-08 08:48 40.35311 -4.15991 14206 ft 350 kts 130°
2026-05-08 08:48 40.34044 -4.13253 13772 ft 353 kts 119°
2026-05-08 08:48 40.33189 -4.10235 13187 ft 353 kts 112°
2026-05-08 08:49 40.32442 -4.07194 12666 ft 349 kts 112°
2026-05-08 08:49 40.31695 -4.04182 12184 ft 346 kts 112°
2026-05-08 08:49 40.30949 -4.01203 11678 ft 342 kts 112°
2026-05-08 08:49 40.30207 -3.98257 11173 ft 339 kts 112°
2026-05-08 08:50 40.29470 -3.95340 10669 ft 335 kts 112°
2026-05-08 08:50 40.28754 -3.92507 10489 ft 320 kts 112°
2026-05-08 08:50 40.28077 -3.89803 10365 ft 305 kts 113°
2026-05-08 08:50 40.27429 -3.87222 10242 ft 292 kts 113°
2026-05-08 08:51 40.26805 -3.84744 10010 ft 283 kts 114°
2026-05-08 08:51 40.26189 -3.82323 9839 ft 278 kts 114°
2026-05-08 08:51 40.25575 -3.79919 9693 ft 278 kts 113°
2026-05-08 08:51 40.24962 -3.77510 9549 ft 278 kts 113°
2026-05-08 08:52 40.24353 -3.75107 9277 ft 278 kts 112°
2026-05-08 08:52 40.23746 -3.72716 8969 ft 276 kts 112°
2026-05-08 08:52 40.23140 -3.70340 8655 ft 275 kts 112°
2026-05-08 08:52 40.22534 -3.67967 8340 ft 275 kts 112°
2026-05-08 08:53 40.21932 -3.65601 8020 ft 274 kts 112°
2026-05-08 08:53 40.21331 -3.63242 7705 ft 273 kts 112°
2026-05-08 08:53 40.20733 -3.60893 7389 ft 272 kts 112°
2026-05-08 08:53 40.20136 -3.58551 7073 ft 271 kts 112°
2026-05-08 08:54 40.19539 -3.56214 6761 ft 270 kts 112°
2026-05-08 08:54 40.18941 -3.53883 6440 ft 270 kts 112°
2026-05-08 08:54 40.18344 -3.51571 6190 ft 265 kts 111°
2026-05-08 08:54 40.17775 -3.49329 6047 ft 255 kts 110°
2026-05-08 08:55 40.17611 -3.47048 5908 ft 251 kts 84°
2026-05-08 08:55 40.18160 -3.44965 5949 ft 240 kts 62°
2026-05-08 08:55 40.19249 -3.43336 5675 ft 239 kts 43°
2026-05-08 08:55 40.20485 -3.41890 5372 ft 238 kts 41°
2026-05-08 08:56 40.21866 -3.40699 5052 ft 238 kts 28°
2026-05-08 08:56 40.23309 -3.39664 4764 ft 235 kts 29°
2026-05-08 08:56 40.24775 -3.38815 4632 ft 227 kts 16°
2026-05-08 08:56 40.26301 -3.38503 4474 ft 219 kts
2026-05-08 08:57 40.27832 -3.38678 4126 ft 221 kts 351°
2026-05-08 08:57 40.29327 -3.38954 3996 ft 212 kts 350°
2026-05-08 08:57 40.30667 -3.39602 4016 ft 205 kts 327°
2026-05-08 08:57 40.31799 -3.40718 4006 ft 202 kts 320°
2026-05-08 08:58 40.32909 -3.41834 4007 ft 200 kts 321°
2026-05-08 08:58 40.34016 -3.42950 4004 ft 201 kts 320°
2026-05-08 08:58 40.35121 -3.44065 4014 ft 198 kts 321°
2026-05-08 08:58 40.36208 -3.45163 4010 ft 197 kts 320°
2026-05-08 08:59 40.37291 -3.46258 4009 ft 196 kts 319°
2026-05-08 08:59 40.38372 -3.47351 3895 ft 191 kts 321°
2026-05-08 08:59 40.39384 -3.48373 3690 ft 178 kts 320°
2026-05-08 08:59 40.40311 -3.49310 3470 ft 160 kts 320°
2026-05-08 09:00 40.41157 -3.50166 3260 ft 148 kts 322°
2026-05-08 09:00 40.41950 -3.50970 3071 ft 142 kts 322°
2026-05-08 09:00 40.42721 -3.51751 2865 ft 137 kts 323°
2026-05-08 09:00 40.43464 -3.52504 2685 ft 133 kts 323°
2026-05-08 09:01 40.44192 -3.53242 2512 ft 132 kts 323°
2026-05-08 09:01 40.44914 -3.53975 2339 ft 131 kts 324°
2026-05-08 09:01 40.45630 -3.54706 2167 ft 130 kts 324°
2026-05-08 09:01 40.46342 -3.55425 2030 ft 128 kts 324°
2026-05-08 09:02 40.47021 -3.56106 1981 ft 109 kts 323°
2026-05-08 09:02 40.47482 -3.56573 1983 ft 55 kts 322°
2026-05-08 09:02 40.47759 -3.56802 1981 ft 28 kts 343°
2026-05-08 09:02 40.47915 -3.56866 1981 ft 24 kts 342°
2026-05-08 09:03 40.48064 -3.56927 1982 ft 13 kts 345°
2026-05-08 09:03 40.48153 -3.56959 1981 ft 14 kts 344°
2026-05-08 09:03 40.48251 -3.56995 1985 ft 15 kts 344°
2026-05-08 09:03 40.48344 -3.57070 1981 ft 16 kts 322°
2026-05-08 09:04 40.48438 -3.57165 1982 ft 18 kts 322°
2026-05-08 09:04 40.48548 -3.57235 1984 ft 18 kts 360°
2026-05-08 09:04 40.48680 -3.57236 1983 ft 20 kts 359°
2026-05-08 09:04 40.48764 -3.57300 1981 ft 15 kts 283°
2026-05-08 09:05 40.48765 -3.57441 1981 ft 16 kts 269°
2026-05-08 09:05 40.48764 -3.57592 1981 ft 17 kts 270°
2026-05-08 09:05 40.48763 -3.57751 1982 ft 18 kts 269°
2026-05-08 09:05 40.48762 -3.57918 1981 ft 19 kts 270°
2026-05-08 09:06 40.48762 -3.58095 1981 ft 20 kts 269°
2026-05-08 09:06 40.48760 -3.58280 1981 ft 21 kts 269°
2026-05-08 09:06 40.48761 -3.58474 1981 ft 22 kts 270°
2026-05-08 09:06 40.48761 -3.58673 1981 ft 18 kts 270°
2026-05-08 09:07 40.48749 -3.58802 1982 ft 12 kts 230°
2026-05-08 09:07 40.48665 -3.58820 1981 ft 13 kts 178°
2026-05-08 09:07 40.48569 -3.58821 1981 ft 15 kts 180°
2026-05-08 09:07 40.48510 -3.58898 1981 ft 14 kts 270°
2026-05-08 09:08 40.48511 -3.59033 1981 ft 15 kts 270°
2026-05-08 09:08 40.48511 -3.59179 1981 ft 17 kts 270°
2026-05-08 09:08 40.48571 -3.59232 1981 ft 11 kts 355°
2026-05-08 09:08 40.48635 -3.59225 1981 ft 8 kts 44°
2026-05-08 09:09 40.48641 -3.59182 1981 ft 3 kts 92°
2026-05-08 09:09 40.48641 -3.59178 1981 ft 0 kts 91°